[[{"header":{"parameterUnit":"m.s-1","parameterCategory":2,"la1":30.2991,"la2":30.254,"lo1":-89.0895,"lo2":-89.0444,"dy":0.0017,"dx":0.0017,"nx":28,"ny":28,"refTime":"2024-06-07T09:00:00:Z","depth":"0","parameterNumber":2,"parameterNumberName":"U-component_of_CURRENTS"},"data":[0,0,0,0,0,0,0,0,0,0,0,0,0,0,0,0,0,0,0,0,0,0,0,0,0,0,0,0,0,0,0,0,0,0,0,0,0,0,0,0,0,0,0,0,0,0,0,0,0,0,0,0,0,0,0,0,0,0,-0.2348,-0.2349,0,-0.2406,-0.2407,-0.2407,-0.2387,-0.2386,-0.2384,-0.2384,-0.2404,-0.2405,-0.2407,0,0,0,0,0,0,0,0,0,0,0,0,0,-0.2237,-0.2239,-0.2348,-0.2349,-0.235,-0.2406,-0.2407,-0.2407,-0.2387,-0.2385,-0.2384,-0.2383,-0.2403,-0.2405,-0.2407,0,0,0,0,0,0,0,0,0,0,0,0,0,-0.2286,-0.224,-0.2348,-0.2349,-0.235,-0.2406,-0.2407,-0.2407,-0.2387,-0.2385,-0.2384,-0.2382,-0.2403,-0.2405,-0.2407,-0.2452,0,0,-0.2414,-0.2415,0,0,0,0,0,0,0,0,-0.2284,-0.229,-0.2348,-0.2349,-0.235,-0.239,-0.2375,-0.2421,-0.2387,-0.237,-0.2384,-0.2382,-0.2399,-0.2401,-0.2412,-0.2453,-0.2454,-0.2414,-0.2416,-0.2417,-0.2417,0,0,0,0,0,0,0,-0.228,-0.2288,-0.2368,-0.2349,-0.235,-0.2353,-0.2357,-0.2384,-0.2389,-0.2371,-0.237,-0.2382,-0.2399,-0.241,-0.2412,-0.2454,-0.2414,-0.2416,-0.2418,-0.2419,-0.2511,-0.2512,0,0,0,0,0,0,-0.228,-0.2285,-0.2366,-0.237,-0.2316,-0.2356,-0.2361,-0.2376,-0.239,-0.2391,-0.2384,-0.2381,-0.2407,-0.241,-0.2413,-0.2447,-0.2417,-0.2419,-0.242,-0.251,-0.2511,-0.2513,0,0,0,0,0,0,-0.2278,-0.2287,-0.2364,-0.233,-0.2341,-0.236,-0.2377,-0.2378,-0.2385,-0.24,-0.24,-0.2388,-0.2406,-0.241,-0.243,-0.2448,-0.242,-0.2422,-0.2509,-0.251,-0.2512,-0.2529,0,0,0,0,0,0,-0.2274,-0.2286,-0.2292,-0.2331,-0.2343,-0.2398,-0.2379,-0.2381,-0.2397,-0.2394,-0.2405,-0.2405,-0.2405,-0.2427,-0.2433,-0.2451,-0.2424,-0.2507,-0.2509,-0.2511,-0.2527,-0.2531,-0.2534,0,0,0,0,0,-0.227,-0.2285,-0.2292,-0.2302,-0.2352,-0.2399,-0.2405,-0.2411,-0.2398,-0.2409,-0.241,-0.2404,-0.2444,-0.243,-0.2436,-0.2456,-0.2506,-0.2509,-0.2511,-0.2525,-0.253,-0.2534,0,0,0,0,0,0,-0.2238,-0.2286,-0.2294,-0.2322,-0.2359,-0.2396,-0.2405,-0.2416,-0.2427,-0.2418,-0.2421,-0.2423,-0.2444,-0.2454,-0.2438,-0.2489,-0.2475,-0.2479,-0.2483,-0.2488,-0.2491,-0.2485,-0.2425,0,0,0,0,0,-0.2238,-0.2258,-0.2308,-0.2329,-0.2347,-0.2378,-0.2395,-0.2407,-0.2427,-0.243,-0.2438,-0.2449,-0.2464,-0.2476,-0.2489,-0.2526,-0.251,-0.2543,-0.2547,-0.255,-0.255,-0.2533,-0.2534,-0.2521,-0.2521,-0.2521,0,0,-0.2229,-0.2259,-0.2269,-0.2323,-0.2346,-0.239,-0.2383,-0.2415,-0.2446,-0.2433,-0.2461,-0.246,-0.2474,-0.2503,-0.2516,-0.2513,-0.2546,-0.2553,-0.2555,-0.2554,-0.2535,-0.2536,-0.2537,-0.2523,-0.2522,-0.2522,0,0,-0.2234,-0.2252,-0.2277,-0.2314,-0.2363,-0.2391,-0.2402,-0.2446,-0.2455,-0.2494,-0.2482,-0.2491,-0.2528,-0.2535,-0.2545,-0.2584,-0.256,-0.2591,-0.2613,-0.2596,-0.2597,-0.2597,-0.2577,-0.2575,-0.26,-0.26,-0.26,0,-0.2221,-0.2264,-0.2291,-0.2335,-0.2363,-0.2394,-0.2434,-0.2463,-0.2505,-0.2512,-0.2504,-0.2535,-0.2545,-0.2573,-0.2582,-0.2592,-0.2572,-0.2592,-0.2599,-0.2599,-0.2598,-0.2578,-0.2575,-0.2602,-0.2601,-0.2601,-0.2601,0,-0.2258,-0.2292,-0.231,-0.2374,-0.2409,-0.2446,-0.2498,-0.2524,-0.2536,-0.2558,-0.2578,-0.2585,-0.2598,-0.2609,-0.2609,-0.2621,-0.2603,-0.2596,-0.2581,-0.26,-0.2578,-0.2575,-0.2603,-0.2603,-0.2602,-0.2602,0,0,-0.2218,-0.2317,-0.2318,-0.2353,-0.2431,-0.2462,-0.2516,-0.2567,-0.2585,-0.2615,-0.2629,-0.2657,-0.2641,-0.2651,-0.2648,-0.2643,-0.2626,-0.262,-0.2619,-0.259,-0.2578,-0.2499,-0.2488,-0.261,-0.261,-0.261,-0.2563,0,-0.2233,-0.2311,-0.2359,-0.2423,-0.2464,-0.2512,-0.2558,-0.2604,-0.2628,-0.2649,-0.2657,-0.2668,-0.2665,-0.2659,-0.2656,-0.2631,-0.2619,-0.2638,-0.2574,-0.2572,-0.249,-0.2482,-0.2381,-0.2323,-0.256,-0.2559,-0.2559,0,-0.2243,-0.2297,-0.2364,-0.2445,-0.2464,-0.2506,-0.2559,-0.2608,-0.2652,-0.2665,-0.2677,-0.2677,-0.2684,-0.2668,-0.264,-0.2648,-0.2614,-0.2593,-0.2591,-0.2507,-0.2487,-0.2345,-0.2309,-0.2284,-0.2554,-0.2555,-0.2555,0,-0.2189,-0.2288,-0.2335,-0.2367,-0.2472,-0.2494,-0.254,-0.2597,-0.2618,-0.2661,-0.2662,-0.268,-0.2666,-0.2646,-0.2612,-0.2619,-0.2563,-0.2568,-0.2466,-0.246,-0.2357,-0.2342,-0.2278,-0.2533,-0.2533,-0.2533,-0.2533,0,-0.2179,-0.221,-0.231,-0.2337,-0.2373,-0.2459,-0.2486,-0.2536,-0.2585,-0.2599,-0.2649,-0.2648,-0.2653,-0.2628,-0.2606,-0.252,-0.2556,-0.2459,-0.2438,-0.236,-0.2347,-0.2307,-0.2346,-0.2532,-0.2532,-0.2532,-0.2533,0,-0.2103,-0.2181,-0.2227,-0.2325,-0.2349,-0.2364,-0.2437,-0.2455,-0.2522,-0.2536,-0.2544,-0.2599,-0.2571,-0.2564,-0.2524,-0.2487,-0.2389,-0.2393,-0.23,-0.2268,-0.214,-0.2185,-0.2125,-0.2065,-0.227,-0.2268,-0.2266,0,-0.2074,-0.2094,-0.2178,-0.2194,-0.2231,-0.2274,-0.23,-0.2394,-0.2415,-0.2498,-0.2492,-0.2495,-0.2468,-0.2395,-0.2333,-0.2261,-0.2285,-0.2137,-0.2131,-0.2105,-0.2141,-0.2183,-0.2141,-0.2007,-0.2003,-0.2,-0.1998,0,-0.1994,-0.2017,-0.2052,-0.2086,-0.2112,-0.2141,-0.2191,-0.2199,-0.2307,-0.2328,-0.2352,-0.2343,-0.2292,-0.2181,-0.2101,-0.2054,-0.2088,-0.2067,-0.2062,-0.1942,-0.1962,-0.1902,-0.2078,-0.1969,-0.1972,-0.1974,-0.1975,-0.1977,-0.1902,-0.1897,-0.1939,-0.1951,-0.1981,-0.1986,-0.1962,-0.203,-0.2041,-0.2055,-0.2155,-0.2122,-0.2088,-0.195,-0.189,-0.1765,-0.1853,-0.1729,-0.179,-0.1837,-0.1762,-0.1869,-0.1723,-0.1725,-0.1726,-0.1727,-0.1728,0,-0.1782,-0.1794,-0.1806,-0.1815,-0.1783,-0.1847,-0.1865,-0.1822,-0.1788,-0.1859,-0.1858,-0.1862,-0.1748,-0.1723,-0.1615,-0.1531,-0.1498,-0.1508,-0.1552,-0.1522,-0.1615,-0.1583,-0.1371,-0.1371,-0.1371,-0.1371,-0.1371,-0.1371,-0.1723,-0.1689,-0.1698,-0.1607,-0.1606,-0.152,-0.1494,-0.1464,-0.1483,-0.1461,-0.1501,-0.1577,-0.1594,-0.169,-0.1555,-0.1462,-0.1441,-0.1393,-0.1432,-0.1516,-0.1542,-0.1567,-0.1542,-0.1326,-0.1326,-0.1259,-0.1259,-0.1259]},{"header":{"parameterUnit":"m.s-1","parameterCategory":2,"la1":30.2991,"la2":30.254,"lo1":-89.0895,"lo2":-89.0444,"dy":0.0017,"dx":0.0017,"nx":28,"ny":28,"refTime":"2024-06-07T09:00:00:Z","depth":"0","parameterNumber":3,"parameterNumberName":"V-component_of_CURRENTS"},"data":[0,0,0,0,0,0,0,0,0,0,0,0,0,0,0,0,0,0,0,0,0,0,0,0,0,0,0,0,0,0,0,0,0,0,0,0,0,0,0,0,0,0,0,0,0,0,0,0,0,0,0,0,0,0,0,0,0,0,-0.0191,-0.019,0,-0.0116,-0.0115,-0.0114,-0.0056,-0.0055,-0.0055,-0.0054,0.006,0.0062,0.0065,0,0,0,0,0,0,0,0,0,0,0,0,0,-0.0245,-0.0245,-0.0191,-0.019,-0.019,-0.0116,-0.0115,-0.0114,-0.0056,-0.0055,-0.0055,-0.0054,0.0059,0.0062,0.0065,0,0,0,0,0,0,0,0,0,0,0,0,0,-0.02,-0.0245,-0.0191,-0.0152,-0.0148,-0.0117,-0.0115,-0.0114,-0.0056,-0.0055,-0.0054,-0.0054,0.0058,0.0061,0.0065,0.0075,0,0,0.0077,0.0079,0,0,0,0,0,0,0,0,-0.0203,-0.0198,-0.0159,-0.0155,-0.015,-0.0095,-0.0092,-0.0049,-0.0056,-0.009,-0.0054,-0.0053,0.001,0.0018,0.0031,0.008,0.0085,0.0077,0.008,0.0081,0.0083,0,0,0,0,0,0,0,-0.0206,-0.0201,-0.0161,-0.0158,-0.0153,-0.0125,-0.0118,-0.0084,-0.0043,-0.0087,-0.0083,-0.0076,0.0013,0.0027,0.0034,0.0087,0.0077,0.0081,0.0083,0.0085,0.0144,0.0144,0,0,0,0,0,0,-0.022,-0.0204,-0.0163,-0.0158,-0.0177,-0.0125,-0.0117,-0.0113,-0.0044,-0.0034,-0.0077,-0.0074,0.002,0.003,0.0039,0.0045,0.0081,0.0085,0.0087,0.0145,0.0144,0.0143,0,0,0,0,0,0,-0.0222,-0.0218,-0.0166,-0.018,-0.0172,-0.0125,-0.0121,-0.0112,-0.0096,-0.0037,-0.0026,-0.007,0.0021,0.0033,0.0056,0.005,0.0087,0.009,0.0146,0.0145,0.0144,0.0063,0,0,0,0,0,0,-0.0224,-0.0219,-0.0223,-0.0181,-0.0172,-0.0157,-0.0121,-0.0111,-0.0094,-0.0089,-0.0028,-0.0017,0.0023,0.005,0.006,0.0056,0.0093,0.0147,0.0146,0.0144,0.0067,0.006,0.0053,0,0,0,0,0,-0.0226,-0.024,-0.0224,-0.0219,-0.0178,-0.0158,-0.0151,-0.0114,-0.0094,-0.0096,-0.0059,-0.0018,0.0049,0.0052,0.0064,0.0062,0.0148,0.0146,0.0144,0.007,0.0061,0.0054,0,0,0,0,0,0,-0.0266,-0.0234,-0.0216,-0.0219,-0.0194,-0.0149,-0.0148,-0.0121,-0.0092,-0.0087,-0.0029,-0.0016,-0.0001,0.0039,0.0041,0.0074,0.0106,0.0107,0.0045,0.0037,0.0031,0.0024,0.0097,0,0,0,0,0,-0.0278,-0.0279,-0.0242,-0.0245,-0.0236,-0.0192,-0.018,-0.0155,-0.0123,-0.0109,-0.0067,-0.0026,0.0001,0.0025,0.0053,0.0075,0.0118,0.0081,0.0074,0.0068,0.007,0.0112,0.011,0.0138,0.0138,0.0138,0,0,-0.0293,-0.0277,-0.0276,-0.0253,-0.023,-0.0229,-0.0183,-0.0171,-0.0167,-0.0102,-0.0087,-0.0053,-0.0002,0.0014,0.0026,0.005,0.0083,0.0066,0.006,0.0066,0.011,0.0108,0.0106,0.0137,0.0137,0.0137,0,0,-0.0333,-0.0311,-0.0328,-0.0315,-0.0291,-0.0261,-0.0261,-0.0221,-0.0199,-0.0182,-0.014,-0.0112,-0.0062,-0.0028,-0.0004,-0.0029,0.0037,-0.0018,-0.0045,-0.0005,-0.0006,-0.0007,0.0046,0.005,-0.0011,-0.0011,-0.0011,0,-0.0354,-0.0367,-0.033,-0.0346,-0.0343,-0.0281,-0.0299,-0.0268,-0.0226,-0.0211,-0.019,-0.0124,-0.0082,-0.0056,-0.0063,-0.0043,-0.0005,-0.0019,-0.0013,-0.0014,-0.0013,0.0042,0.0048,-0.0015,-0.0015,-0.0014,-0.0014,0,-0.0407,-0.0417,-0.0427,-0.0424,-0.0414,-0.042,-0.0376,-0.0357,-0.032,-0.0285,-0.0255,-0.0199,-0.0155,-0.0139,-0.0105,-0.0083,-0.0052,-0.0037,0.0006,-0.0021,0.0039,0.0047,-0.0021,-0.002,-0.0018,-0.0017,0,0,-0.0453,-0.0464,-0.0467,-0.0483,-0.0458,-0.0457,-0.0446,-0.0418,-0.0407,-0.0355,-0.034,-0.0286,-0.0242,-0.0213,-0.0164,-0.012,-0.0083,-0.0078,-0.0074,-0.0026,0.0018,0.0088,0.0103,-0.0068,-0.0067,-0.0066,0.0059,0,-0.0505,-0.0559,-0.0542,-0.0581,-0.0603,-0.0552,-0.055,-0.0515,-0.0464,-0.0431,-0.0358,-0.0327,-0.0273,-0.0252,-0.0202,-0.0116,-0.0067,-0.0117,0.0039,0.0044,0.0108,0.0113,0.0164,0.0285,0.0067,0.0069,0.007,0,-0.0562,-0.059,-0.0647,-0.0666,-0.067,-0.0677,-0.0654,-0.064,-0.057,-0.0533,-0.0473,-0.0411,-0.0336,-0.0293,-0.0147,-0.0181,-0.009,-0.0017,-0.001,0.009,0.0128,0.0277,0.0307,0.0478,0.0082,0.0081,0.008,0,-0.0621,-0.066,-0.0708,-0.0717,-0.0727,-0.0735,-0.0724,-0.0672,-0.0661,-0.0586,-0.0565,-0.0468,-0.0415,-0.0296,-0.0128,-0.0142,0.0041,0.0041,0.0193,0.0199,0.0294,0.0307,0.0508,0.0139,0.0139,0.0138,0.0138,0,-0.0687,-0.0723,-0.074,-0.0772,-0.0821,-0.0798,-0.0818,-0.0786,-0.074,-0.0725,-0.062,-0.0575,-0.0414,-0.0284,-0.0143,0.0067,0.0037,0.0199,0.0238,0.0268,0.0277,0.0471,0.0528,0.0143,0.0142,0.0141,0.014,0,-0.0746,-0.0759,-0.0818,-0.0845,-0.0855,-0.0884,-0.0889,-0.0894,-0.0836,-0.0809,-0.0791,-0.0653,-0.0469,-0.0283,-0.0072,0.0055,0.0359,0.0318,0.0353,0.0395,0.0678,0.0727,0.0963,0.1074,0.0495,0.0497,0.0499,0,-0.0782,-0.082,-0.0876,-0.0913,-0.0928,-0.0961,-0.0984,-0.0948,-0.0946,-0.0845,-0.0839,-0.0661,-0.0513,-0.0159,0.0099,0.0375,0.0491,0.0568,0.0549,0.0719,0.0803,0.0832,0.0909,0.0646,0.0649,0.0651,0.0653,0,-0.0847,-0.0862,-0.091,-0.0989,-0.103,-0.1074,-0.1095,-0.1108,-0.105,-0.0991,-0.0871,-0.0738,-0.0385,-0.0037,0.032,0.0481,0.0709,0.0629,0.0797,0.0939,0.0992,0.1109,0.0543,0.0676,0.0674,0.0672,0.0671,0.067,-0.0881,-0.0931,-0.0991,-0.106,-0.1112,-0.1163,-0.1184,-0.1172,-0.114,-0.1021,-0.0893,-0.064,-0.0152,0.0371,0.0568,0.0983,0.0919,0.1091,0.1138,0.1153,0.1263,0.0756,0.0934,0.0933,0.0933,0.0932,0.0932,0,-0.0921,-0.0979,-0.1056,-0.1138,-0.1196,-0.1205,-0.124,-0.122,-0.1156,-0.0995,-0.0823,-0.0268,0.0225,0.0669,0.1239,0.147,0.1518,0.1579,0.1634,0.1689,0.1247,0.1257,0.1522,0.1522,0.1522,0.1521,0.1521,0.1521,-0.0947,-0.103,-0.1074,-0.1181,-0.1231,-0.1271,-0.1278,-0.1216,-0.1098,-0.0777,-0.0462,-0.0207,0.042,0.1336,0.1866,0.1918,0.2118,0.2104,0.2206,0.1896,0.1853,0.1812,0.1839,0.2222,0.2222,0.2645,0.2649,0.2652]}],[{"header":{"parameterUnit":"m.s-1","parameterCategory":2,"la1":30.2991,"la2":30.254,"lo1":-89.0895,"lo2":-89.0444,"dy":0.0017,"dx":0.0017,"nx":28,"ny":28,"refTime":"2024-06-07T09:00:00:Z","depth":"2","parameterNumber":2,"parameterNumberName":"U-component_of_CURRENTS"},"data":[0,0,0,0,0,0,0,0,0,0,0,0,0,0,0,0,0,0,0,0,0,0,0,0,0,0,0,0,0,0,0,0,0,0,0,0,0,0,0,0,0,0,0,0,0,0,0,0,0,0,0,0,0,0,0,0,0,0,-0.2082,-0.2083,0,-0.2139,-0.2139,-0.214,-0.2129,-0.2129,-0.2128,-0.2127,-0.2164,-0.2165,-0.2167,0,0,0,0,0,0,0,0,0,0,0,0,0,-0.1982,-0.1984,-0.2082,-0.2083,-0.2084,-0.2139,-0.2139,-0.214,-0.213,-0.2129,-0.2128,-0.2127,-0.2163,-0.2165,-0.2167,0,0,0,0,0,0,0,0,0,0,0,0,0,-0.2029,-0.1984,-0.2082,-0.2087,-0.2088,-0.2139,-0.2139,-0.214,-0.213,-0.2129,-0.2127,-0.2126,-0.2162,-0.2165,-0.2167,-0.2207,0,0,-0.2175,-0.2176,0,0,0,0,0,0,0,0,-0.2026,-0.2032,-0.2085,-0.2087,-0.2088,-0.2128,-0.2118,-0.2162,-0.213,-0.2111,-0.2127,-0.2126,-0.2152,-0.2156,-0.2166,-0.2209,-0.221,-0.2175,-0.2177,-0.2178,-0.2179,0,0,0,0,0,0,0,-0.2023,-0.203,-0.2102,-0.2086,-0.2088,-0.2093,-0.2098,-0.2126,-0.2136,-0.2113,-0.2113,-0.2124,-0.2152,-0.2163,-0.2167,-0.2211,-0.2175,-0.2178,-0.2179,-0.218,-0.2281,-0.2282,0,0,0,0,0,0,-0.2021,-0.2027,-0.21,-0.2104,-0.2056,-0.2096,-0.2101,-0.2114,-0.2136,-0.2139,-0.2125,-0.2123,-0.216,-0.2164,-0.2168,-0.221,-0.2178,-0.2181,-0.2182,-0.228,-0.2281,-0.2282,0,0,0,0,0,0,-0.2019,-0.2028,-0.2098,-0.2068,-0.2078,-0.2099,-0.2114,-0.2116,-0.2127,-0.2145,-0.2147,-0.2132,-0.2159,-0.2164,-0.2194,-0.2211,-0.2182,-0.2184,-0.2278,-0.228,-0.2282,-0.2297,0,0,0,0,0,0,-0.2016,-0.2026,-0.2033,-0.2068,-0.2079,-0.213,-0.2115,-0.2118,-0.2136,-0.2134,-0.2153,-0.2155,-0.2158,-0.219,-0.2196,-0.2214,-0.2186,-0.2277,-0.2279,-0.2281,-0.2296,-0.23,-0.2303,0,0,0,0,0,-0.2012,-0.2026,-0.2033,-0.2042,-0.2089,-0.2131,-0.2137,-0.2146,-0.2138,-0.2149,-0.2159,-0.2154,-0.2208,-0.2193,-0.22,-0.2219,-0.2276,-0.2279,-0.2281,-0.2294,-0.2299,-0.2303,0,0,0,0,0,0,-0.1985,-0.2028,-0.2036,-0.2062,-0.2095,-0.213,-0.214,-0.2151,-0.2169,-0.2164,-0.2173,-0.2177,-0.2205,-0.2216,-0.22,-0.2255,-0.2241,-0.2245,-0.2248,-0.2253,-0.2256,-0.2249,-0.2188,0,0,0,0,0,-0.1985,-0.2004,-0.2049,-0.2068,-0.2085,-0.2114,-0.213,-0.2144,-0.2167,-0.2173,-0.2187,-0.2204,-0.2224,-0.224,-0.2257,-0.2296,-0.2282,-0.2313,-0.2316,-0.2319,-0.2319,-0.2307,-0.2309,-0.2291,-0.2291,-0.2291,0,0,-0.1978,-0.2005,-0.2015,-0.2063,-0.2085,-0.2125,-0.212,-0.2151,-0.2182,-0.2176,-0.2212,-0.2216,-0.2236,-0.2269,-0.2284,-0.2281,-0.2318,-0.2323,-0.2325,-0.2323,-0.231,-0.2312,-0.2313,-0.2293,-0.2292,-0.2292,0,0,-0.1984,-0.2001,-0.2024,-0.2057,-0.2102,-0.2128,-0.2139,-0.2181,-0.2193,-0.2237,-0.2232,-0.2246,-0.229,-0.23,-0.2313,-0.2353,-0.2332,-0.2361,-0.2382,-0.2371,-0.2372,-0.2372,-0.2354,-0.2353,-0.237,-0.237,-0.237,0,-0.1974,-0.2012,-0.2037,-0.2075,-0.2101,-0.2131,-0.2168,-0.2198,-0.2243,-0.2255,-0.2249,-0.2293,-0.2305,-0.2339,-0.2349,-0.236,-0.2345,-0.2361,-0.2373,-0.2374,-0.2374,-0.2355,-0.2354,-0.2371,-0.2371,-0.2371,-0.2371,0,-0.2006,-0.2037,-0.2053,-0.2111,-0.2144,-0.2178,-0.2228,-0.2257,-0.2275,-0.2298,-0.2327,-0.2339,-0.236,-0.2371,-0.2374,-0.239,-0.2375,-0.237,-0.2356,-0.2376,-0.2356,-0.2354,-0.2373,-0.2372,-0.2372,-0.2372,0,0,-0.1971,-0.2059,-0.2061,-0.2093,-0.2164,-0.2194,-0.2249,-0.23,-0.2325,-0.2358,-0.238,-0.2411,-0.24,-0.2413,-0.2415,-0.2412,-0.24,-0.2395,-0.2394,-0.2366,-0.2366,-0.2287,-0.2277,-0.2391,-0.2391,-0.2391,-0.2349,0,-0.1983,-0.2053,-0.2096,-0.2157,-0.2195,-0.2243,-0.2291,-0.2339,-0.2368,-0.2398,-0.2409,-0.2428,-0.2424,-0.2425,-0.2424,-0.2407,-0.2396,-0.2411,-0.236,-0.2358,-0.2276,-0.2272,-0.2112,-0.2055,-0.2347,-0.2347,-0.2347,0,-0.1992,-0.204,-0.2101,-0.2181,-0.22,-0.2241,-0.2303,-0.2352,-0.2403,-0.2422,-0.244,-0.2446,-0.2458,-0.2441,-0.2421,-0.2429,-0.2397,-0.2379,-0.2377,-0.2295,-0.2275,-0.2084,-0.204,-0.2343,-0.2343,-0.2343,-0.2344,0,-0.1945,-0.2035,-0.2079,-0.2109,-0.2209,-0.2235,-0.2283,-0.2346,-0.2373,-0.2425,-0.2434,-0.2458,-0.2452,-0.2434,-0.2403,-0.2409,-0.2363,-0.2367,-0.2265,-0.2259,-0.2108,-0.2088,-0.2335,-0.2335,-0.2335,-0.2335,-0.2335,0,-0.1934,-0.1965,-0.2059,-0.2084,-0.2124,-0.2207,-0.2244,-0.2296,-0.2354,-0.2375,-0.2428,-0.2434,-0.2445,-0.2425,-0.2402,-0.232,-0.2359,-0.2258,-0.2239,-0.2109,-0.2092,-0.2334,-0.2334,-0.2333,-0.2334,-0.2334,-0.2334,0,-0.1867,-0.1937,-0.1983,-0.2078,-0.2102,-0.2124,-0.2202,-0.2229,-0.23,-0.2326,-0.2338,-0.2398,-0.2375,-0.2369,-0.2334,-0.2296,-0.2246,-0.2203,-0.2048,-0.201,-0.2152,-0.2154,-0.209,-0.2086,-0.2084,-0.2081,-0.2079,0,-0.184,-0.1859,-0.1941,-0.1959,-0.1996,-0.2045,-0.2077,-0.2174,-0.2203,-0.2294,-0.2294,-0.2304,-0.2276,-0.2208,-0.2143,-0.2069,-0.2152,-0.1892,-0.1875,-0.2137,-0.2125,-0.2132,-0.2138,-0.1683,-0.1678,-0.1674,-0.1671,0,-0.1769,-0.1792,-0.1827,-0.1863,-0.1895,-0.1929,-0.1985,-0.2,-0.2113,-0.2136,-0.216,-0.2148,-0.2097,-0.1952,-0.1872,-0.1818,-0.1897,-0.1805,-0.2105,-0.1774,-0.1751,-0.1741,-0.176,-0.1634,-0.1638,-0.164,-0.1642,-0.1644,-0.1688,-0.1685,-0.1726,-0.1744,-0.178,-0.1792,-0.1774,-0.1843,-0.1858,-0.1871,-0.1962,-0.1896,-0.1887,-0.1671,-0.1575,-0.1505,-0.1639,-0.1582,-0.1595,-0.1613,-0.1577,-0.1551,-0.139,-0.1392,-0.1394,-0.1395,-0.1397,0,-0.158,-0.1594,-0.161,-0.1626,-0.1606,-0.1667,-0.1692,-0.1653,-0.1619,-0.1663,-0.1648,-0.1494,-0.1389,-0.1382,-0.1207,-0.117,-0.1166,-0.113,-0.1133,-0.117,-0.1202,-0.1147,-0.0845,-0.0843,-0.0841,-0.084,0,0,-0.1527,-0.15,-0.1508,-0.1438,-0.1445,-0.1374,-0.1354,-0.1318,-0.1316,-0.1252,-0.1227,-0.1325,-0.1355,-0.1115,-0.1045,-0.0915,-0.1033,-0.0865,-0.1309,-0.135,-0.138,-0.1463,-0.1418,0,0,0,0,0]},{"header":{"parameterUnit":"m.s-1","parameterCategory":2,"la1":30.2991,"la2":30.254,"lo1":-89.0895,"lo2":-89.0444,"dy":0.0017,"dx":0.0017,"nx":28,"ny":28,"refTime":"2024-06-07T09:00:00:Z","depth":"2","parameterNumber":3,"parameterNumberName":"V-component_of_CURRENTS"},"data":[0,0,0,0,0,0,0,0,0,0,0,0,0,0,0,0,0,0,0,0,0,0,0,0,0,0,0,0,0,0,0,0,0,0,0,0,0,0,0,0,0,0,0,0,0,0,0,0,0,0,0,0,0,0,0,0,0,0,-0.0147,-0.0147,0,-0.0079,-0.0078,-0.0078,-0.0024,-0.0024,-0.0023,-0.0023,0.0079,0.0082,0.0084,0,0,0,0,0,0,0,0,0,0,0,0,0,-0.0196,-0.0195,-0.0148,-0.0147,-0.0146,-0.0079,-0.0078,-0.0077,-0.0024,-0.0024,-0.0023,-0.0023,0.0078,0.0081,0.0084,0,0,0,0,0,0,0,0,0,0,0,0,0,-0.0155,-0.0195,-0.0148,-0.0112,-0.0108,-0.008,-0.0078,-0.0077,-0.0024,-0.0024,-0.0023,-0.0023,0.0078,0.0081,0.0084,0.0093,0,0,0.0095,0.0097,0,0,0,0,0,0,0,0,-0.0157,-0.0153,-0.0118,-0.0115,-0.011,-0.006,-0.0058,-0.0019,-0.0025,-0.0055,-0.0023,-0.0022,0.0035,0.0042,0.0054,0.0098,0.0102,0.0095,0.0098,0.0099,0.01,0,0,0,0,0,0,0,-0.016,-0.0156,-0.0119,-0.0118,-0.0113,-0.0087,-0.0081,-0.005,-0.0013,-0.0053,-0.0049,-0.0043,0.0037,0.005,0.0057,0.0104,0.0095,0.0098,0.0101,0.0102,0.0156,0.0155,0,0,0,0,0,0,-0.0173,-0.0159,-0.0122,-0.0118,-0.0134,-0.0087,-0.008,-0.0076,-0.0014,-0.0005,-0.0044,-0.0041,0.0044,0.0053,0.0061,0.0071,0.0099,0.0102,0.0104,0.0157,0.0156,0.0155,0,0,0,0,0,0,-0.0175,-0.0171,-0.0124,-0.0137,-0.0129,-0.0088,-0.0083,-0.0075,-0.0061,-0.0008,0.0002,-0.0038,0.0045,0.0056,0.0077,0.0075,0.0104,0.0107,0.0157,0.0156,0.0155,0.0093,0,0,0,0,0,0,-0.0176,-0.0172,-0.0176,-0.0138,-0.0129,-0.0116,-0.0084,-0.0075,-0.0059,-0.0054,0.0001,0.0011,0.0046,0.0071,0.008,0.0081,0.011,0.0158,0.0157,0.0156,0.0096,0.009,0.0085,0,0,0,0,0,-0.0178,-0.0192,-0.0177,-0.0173,-0.0136,-0.0117,-0.0111,-0.0077,-0.006,-0.0061,-0.0027,0.0009,0.007,0.0073,0.0084,0.0085,0.0159,0.0157,0.0156,0.0099,0.0092,0.0086,0,0,0,0,0,0,-0.0215,-0.0186,-0.017,-0.0173,-0.015,-0.0109,-0.0108,-0.0083,-0.0057,-0.0053,-0.0001,0.0011,0.0026,0.0061,0.0063,0.0096,0.0121,0.0122,0.0074,0.0068,0.0062,0.0056,0.0113,0,0,0,0,0,-0.0226,-0.0227,-0.0193,-0.0196,-0.0188,-0.0148,-0.0137,-0.0115,-0.0085,-0.0073,-0.0035,0.0003,0.0028,0.0051,0.0075,0.0097,0.0139,0.0105,0.01,0.0095,0.0096,0.0152,0.0152,0.015,0.015,0.015,0,0,-0.024,-0.0225,-0.0225,-0.0204,-0.0183,-0.0181,-0.014,-0.0129,-0.0123,-0.0066,-0.0051,-0.0021,0.0025,0.0043,0.0055,0.0075,0.0115,0.0093,0.0089,0.0093,0.015,0.0151,0.0151,0.0149,0.0149,0.015,0,0,-0.0275,-0.0257,-0.0272,-0.026,-0.0237,-0.021,-0.021,-0.0173,-0.0152,-0.0136,-0.0098,-0.0067,-0.0025,0.0012,0.0035,0.0017,0.0075,0.0022,0.0004,0.0057,0.0058,0.006,0.0105,0.0112,0.0031,0.0031,0.0031,0,-0.0295,-0.0306,-0.0273,-0.0287,-0.0283,-0.0227,-0.0243,-0.0214,-0.0174,-0.0158,-0.0142,-0.0077,-0.0037,-0.0003,-0.0011,0.0007,0.0041,0.0025,0.0051,0.0053,0.0056,0.0103,0.011,0.0027,0.0028,0.0028,0.0028,0,-0.0342,-0.035,-0.0359,-0.0354,-0.0346,-0.035,-0.0309,-0.029,-0.0256,-0.0221,-0.0187,-0.0133,-0.0088,-0.0072,-0.0045,-0.001,0.0008,0.0028,0.0068,0.0052,0.0103,0.0112,0.0023,0.0024,0.0025,0.0026,0,0,-0.0384,-0.0392,-0.0394,-0.0408,-0.0384,-0.0383,-0.0369,-0.0338,-0.0322,-0.0273,-0.0251,-0.0197,-0.0155,-0.0126,-0.0081,-0.0029,0.0017,0.0004,0.0008,0.005,0.013,0.0167,0.0181,0.0042,0.0043,0.0044,0.0155,0,-0.043,-0.0476,-0.046,-0.0493,-0.0512,-0.0464,-0.0459,-0.0421,-0.037,-0.0332,-0.0256,-0.0222,-0.0177,-0.0156,-0.0098,-0.0016,0.0039,-0.0015,0.0139,0.0143,0.018,0.0192,0.0173,0.0273,0.0165,0.0166,0.0167,0,-0.048,-0.0505,-0.0554,-0.0568,-0.0571,-0.0576,-0.0547,-0.0531,-0.0455,-0.0417,-0.0351,-0.029,-0.0209,-0.0172,-0.0022,-0.006,0.0027,0.0097,0.0103,0.0168,0.0198,0.0273,0.0294,0.0183,0.0182,0.018,0.0179,0,-0.0536,-0.0568,-0.061,-0.0618,-0.0622,-0.0627,-0.0615,-0.0557,-0.0541,-0.046,-0.0434,-0.0329,-0.0274,-0.0153,-0.0003,-0.0013,0.0167,0.0174,0.0292,0.0295,0.0326,0.033,0.0282,0.0282,0.0281,0.0281,0.0281,0,-0.0595,-0.0627,-0.0641,-0.0669,-0.0711,-0.0686,-0.0698,-0.0664,-0.061,-0.0587,-0.048,-0.0432,-0.0268,-0.0143,-0.0011,0.0175,0.0168,0.0296,0.0332,0.0303,0.0303,0.0262,0.0258,0.0285,0.0284,0.0283,0.0283,0,-0.0651,-0.0661,-0.0713,-0.0734,-0.0743,-0.0769,-0.0765,-0.0763,-0.0701,-0.0664,-0.0644,-0.0504,-0.0332,-0.0155,0.0053,0.0166,0.0337,0.0404,0.0356,0.0384,0.0428,0.0419,0.054,0.0543,0.0545,0.0547,0.0548,0,-0.0685,-0.0719,-0.0768,-0.0802,-0.0814,-0.0842,-0.0859,-0.0817,-0.0805,-0.07,-0.0687,-0.052,-0.0384,-0.0061,0.0168,0.0414,0.0406,0.0528,0.0509,0.0434,0.0457,0.0446,0.0435,0.0523,0.0524,0.0525,0.0526,0,-0.0747,-0.076,-0.0802,-0.0875,-0.091,-0.0945,-0.0958,-0.0964,-0.0898,-0.0837,-0.072,-0.0599,-0.0288,-0.001,0.0301,0.0437,0.0486,0.0554,0.0508,0.0456,0.0426,0.0445,0.0434,0.0533,0.0533,0.0532,0.0532,0.0531,-0.078,-0.0826,-0.088,-0.0943,-0.0988,-0.1028,-0.1044,-0.1025,-0.0987,-0.0869,-0.075,-0.0531,-0.0272,0.0182,0.0402,0.0596,0.0586,0.0634,0.0628,0.0622,0.0595,0.0571,0.07,0.07,0.07,0.07,0.07,0,-0.0822,-0.0873,-0.0943,-0.1016,-0.1066,-0.1073,-0.1094,-0.1071,-0.1007,-0.086,-0.0703,-0.0396,-0.0074,0.0187,0.051,0.0698,0.0668,0.0718,0.0647,0.0639,0.0632,0.0602,0.0711,0.0711,0.0712,0.0712,0,0,-0.0848,-0.0923,-0.0962,-0.1058,-0.1104,-0.1139,-0.1142,-0.1078,-0.0969,-0.0803,-0.0626,-0.0383,-0.006,0.0173,0.0412,0.0574,0.0552,0.0581,0.0555,0.0437,0.0428,0.0571,0.0516,0,0,0,0,0]}],[{"header":{"parameterUnit":"m.s-1","parameterCategory":2,"la1":30.2991,"la2":30.254,"lo1":-89.0895,"lo2":-89.0444,"dy":0.0017,"dx":0.0017,"nx":28,"ny":28,"refTime":"2024-06-07T09:00:00:Z","depth":"4","parameterNumber":2,"parameterNumberName":"U-component_of_CURRENTS"},"data":[0,0,0,0,0,0,0,0,0,0,0,0,0,0,0,0,0,0,0,0,0,0,0,0,0,0,0,0,0,0,0,0,0,0,0,0,0,0,0,0,0,0,0,0,0,0,0,0,0,0,0,0,0,0,0,0,0,0,-0.1493,-0.1494,0,-0.1571,-0.1572,-0.1573,-0.1615,-0.1615,-0.1616,-0.1616,-0.1728,-0.173,-0.1733,0,0,0,0,0,0,0,0,0,0,0,0,0,-0.1391,-0.1392,-0.1493,-0.1494,-0.1495,-0.1571,-0.1572,-0.1573,-0.1615,-0.1615,-0.1616,-0.1616,-0.1727,-0.173,-0.1733,0,0,0,0,0,0,0,0,0,0,0,0,0,-0.1447,-0.1393,-0.1493,-0.1526,-0.153,-0.1571,-0.1572,-0.1573,-0.1615,-0.1615,-0.1616,-0.1616,-0.1726,-0.173,-0.1734,-0.1753,0,0,-0.1746,-0.1748,0,0,0,0,0,0,0,0,-0.1444,-0.1451,-0.152,-0.1524,-0.1528,-0.1585,-0.1577,-0.1635,-0.1615,-0.1581,-0.1616,-0.1616,-0.1683,-0.1691,-0.1703,-0.1758,-0.1763,-0.1747,-0.1749,-0.1751,-0.1752,0,0,0,0,0,0,0,-0.144,-0.1448,-0.1522,-0.1521,-0.1526,-0.1541,-0.1549,-0.1588,-0.1629,-0.1584,-0.1588,-0.1598,-0.1686,-0.1699,-0.1706,-0.1765,-0.1747,-0.175,-0.1753,-0.1755,-0.1904,-0.1905,0,0,0,0,0,0,-0.1432,-0.1444,-0.152,-0.1525,-0.1487,-0.1542,-0.1552,-0.1565,-0.1628,-0.1638,-0.1598,-0.16,-0.1691,-0.1701,-0.171,-0.1794,-0.1751,-0.1755,-0.1757,-0.1902,-0.1904,-0.1906,0,0,0,0,0,0,-0.143,-0.1438,-0.1517,-0.1487,-0.1498,-0.1544,-0.1559,-0.1567,-0.1606,-0.1639,-0.1649,-0.1632,-0.1692,-0.1704,-0.1767,-0.1797,-0.1757,-0.1761,-0.1901,-0.1903,-0.1905,-0.1926,0,0,0,0,0,0,-0.1426,-0.1437,-0.1457,-0.1487,-0.15,-0.1557,-0.1559,-0.1568,-0.161,-0.1615,-0.1671,-0.168,-0.1693,-0.1761,-0.1771,-0.1802,-0.1764,-0.1899,-0.1902,-0.1904,-0.1923,-0.1929,-0.1933,0,0,0,0,0,-0.1422,-0.1443,-0.1457,-0.1467,-0.1521,-0.1558,-0.1567,-0.1599,-0.1612,-0.1634,-0.1673,-0.1679,-0.1785,-0.1766,-0.1778,-0.181,-0.1897,-0.1901,-0.1904,-0.1921,-0.1927,-0.1933,0,0,0,0,0,0,-0.1411,-0.1451,-0.1466,-0.15,-0.1535,-0.1566,-0.1592,-0.1614,-0.1662,-0.1675,-0.1702,-0.1714,-0.1775,-0.1794,-0.1772,-0.1861,-0.1842,-0.1847,-0.1851,-0.1857,-0.1862,-0.1853,-0.1767,0,0,0,0,0,-0.1417,-0.1444,-0.1481,-0.1511,-0.1529,-0.1566,-0.1591,-0.1615,-0.1654,-0.1676,-0.1716,-0.1758,-0.1794,-0.1827,-0.186,-0.1917,-0.1907,-0.1945,-0.195,-0.1954,-0.1955,-0.1958,-0.1962,-0.1916,-0.1916,-0.1916,0,0,-0.1422,-0.1447,-0.1464,-0.1511,-0.154,-0.1578,-0.1582,-0.1627,-0.1667,-0.1682,-0.1755,-0.1777,-0.1812,-0.1867,-0.1898,-0.1892,-0.1962,-0.1958,-0.1961,-0.196,-0.1962,-0.1966,-0.1969,-0.1919,-0.1918,-0.1918,0,0,-0.1436,-0.1467,-0.1494,-0.1526,-0.1576,-0.1601,-0.162,-0.167,-0.1703,-0.1768,-0.1782,-0.1822,-0.1896,-0.1915,-0.1936,-0.1991,-0.1981,-0.201,-0.2038,-0.204,-0.2043,-0.2046,-0.2032,-0.2033,-0.202,-0.202,-0.202,0,-0.1442,-0.148,-0.1508,-0.1543,-0.1575,-0.1615,-0.1654,-0.1694,-0.1762,-0.179,-0.1799,-0.1887,-0.1914,-0.1967,-0.1985,-0.2001,-0.1995,-0.201,-0.2044,-0.2046,-0.2049,-0.2034,-0.2035,-0.2021,-0.2021,-0.2021,-0.2021,0,-0.1472,-0.1513,-0.1532,-0.159,-0.1628,-0.1668,-0.1722,-0.1771,-0.1814,-0.1847,-0.1913,-0.1944,-0.1992,-0.2009,-0.2018,-0.2056,-0.2044,-0.204,-0.2022,-0.2054,-0.2037,-0.2038,-0.2023,-0.2023,-0.2022,-0.2022,0,0,-0.1449,-0.1536,-0.1544,-0.1582,-0.1657,-0.1689,-0.176,-0.1825,-0.187,-0.1929,-0.1978,-0.2034,-0.2042,-0.2064,-0.2077,-0.2086,-0.2094,-0.2078,-0.2077,-0.2051,-0.2091,-0.1948,-0.1934,-0.2097,-0.2097,-0.2098,-0.2069,0,-0.1464,-0.1533,-0.1576,-0.1649,-0.1688,-0.1748,-0.1809,-0.1875,-0.1928,-0.1986,-0.2017,-0.2067,-0.2067,-0.2089,-0.21,-0.2101,-0.2099,-0.2102,-0.2075,-0.2074,-0.1932,-0.1931,-0.2099,-0.2069,-0.2069,-0.207,-0.207,0,-0.147,-0.1519,-0.1589,-0.1681,-0.1704,-0.1758,-0.1851,-0.1911,-0.1993,-0.2032,-0.2079,-0.2102,-0.2139,-0.2124,-0.2133,-0.2138,-0.2116,-0.2105,-0.2104,-0.1961,-0.1931,-0.2035,-0.207,-0.207,-0.207,-0.207,-0.207,0,-0.1425,-0.1523,-0.158,-0.1613,-0.1724,-0.1772,-0.1834,-0.1924,-0.1969,-0.2057,-0.2085,-0.2136,-0.2154,-0.2152,-0.2132,-0.214,-0.2118,-0.2123,-0.1969,-0.1959,-0.2088,-0.2086,-0.2109,-0.2109,-0.2109,-0.2109,-0.2109,0,-0.1406,-0.1455,-0.157,-0.1601,-0.1669,-0.1758,-0.1831,-0.1899,-0.1985,-0.2023,-0.2099,-0.2116,-0.2161,-0.2154,-0.2138,-0.2042,-0.2119,-0.1961,-0.1937,-0.2098,-0.2097,-0.2088,-0.2086,-0.2108,-0.2108,-0.2109,-0.2109,0,-0.1339,-0.142,-0.1488,-0.161,-0.1649,-0.1696,-0.1811,-0.1856,-0.1952,-0.2001,-0.2026,-0.21,-0.2086,-0.2097,-0.2083,-0.202,-0.1965,-0.1908,-0.2068,-0.2056,-0.1807,-0.1807,-0.1738,-0.1732,-0.1728,-0.1724,-0.1721,0,-0.1309,-0.134,-0.1465,-0.1504,-0.1561,-0.1647,-0.1699,-0.1818,-0.1857,-0.1968,-0.1971,-0.2,-0.2026,-0.1882,-0.1923,-0.1858,-0.1834,-0.1799,-0.181,-0.1782,-0.1767,-0.1774,-0.178,-0.1713,-0.1712,-0.1711,-0.171,0,-0.1239,-0.1294,-0.1347,-0.1421,-0.1486,-0.1544,-0.1628,-0.1641,-0.1767,-0.1868,-0.1849,-0.1831,-0.1802,-0.178,-0.1725,-0.1691,-0.1826,-0.1751,-0.1761,-0.1771,-0.1752,-0.1743,-0.1754,-0.1694,-0.1696,-0.1698,-0.1699,0,-0.1179,-0.1193,-0.1266,-0.1315,-0.1391,-0.1416,-0.1478,-0.1518,-0.1563,-0.1691,-0.168,-0.1716,-0.1781,-0.1691,-0.1656,-0.1593,-0.1574,-0.1532,-0.1553,-0.1571,-0.1528,-0.1481,-0.1305,0,0,0,0,0,-0.111,-0.1115,-0.1156,-0.1206,-0.1275,-0.1311,-0.1418,-0.1486,-0.1605,-0.1541,-0.1603,-0.157,-0.1514,-0.1541,-0.1436,-0.1581,-0.1582,-0.1455,-0.1547,-0.1606,-0.1624,-0.1589,0,0,0,0,0,0,-0.1066,-0.11,-0.1113,-0.1094,-0.1105,-0.1163,-0.122,-0.1309,-0.1283,-0.1407,-0.1375,-0.1466,-0.1425,-0.1528,-0.1397,-0.1402,-0.1427,-0.1486,-0.1481,-0.1596,-0.1612,-0.1627,-0.1597,0,0,0,0,0]},{"header":{"parameterUnit":"m.s-1","parameterCategory":2,"la1":30.2991,"la2":30.254,"lo1":-89.0895,"lo2":-89.0444,"dy":0.0017,"dx":0.0017,"nx":28,"ny":28,"refTime":"2024-06-07T09:00:00:Z","depth":"4","parameterNumber":3,"parameterNumberName":"V-component_of_CURRENTS"},"data":[0,0,0,0,0,0,0,0,0,0,0,0,0,0,0,0,0,0,0,0,0,0,0,0,0,0,0,0,0,0,0,0,0,0,0,0,0,0,0,0,0,0,0,0,0,0,0,0,0,0,0,0,0,0,0,0,0,0,-0.0107,-0.0106,0,-0.006,-0.0059,-0.0058,-0.002,-0.002,-0.0019,-0.0019,0.0062,0.0064,0.0066,0,0,0,0,0,0,0,0,0,0,0,0,0,-0.0135,-0.0135,-0.0107,-0.0106,-0.0106,-0.006,-0.0059,-0.0058,-0.002,-0.002,-0.0019,-0.0019,0.0061,0.0063,0.0066,0,0,0,0,0,0,0,0,0,0,0,0,0,-0.0108,-0.0135,-0.0107,-0.0082,-0.0079,-0.006,-0.0059,-0.0058,-0.002,-0.002,-0.0019,-0.0019,0.0061,0.0063,0.0066,0.0074,0,0,0.0075,0.0076,0,0,0,0,0,0,0,0,-0.011,-0.0107,-0.0086,-0.0084,-0.0081,-0.0046,-0.004,-0.0013,-0.002,-0.0041,-0.0019,-0.0019,0.0028,0.0033,0.0042,0.0078,0.0081,0.0075,0.0077,0.0078,0.0079,0,0,0,0,0,0,0,-0.0112,-0.0109,-0.0087,-0.0086,-0.0082,-0.0064,-0.0059,-0.0034,-0.0008,-0.004,-0.0037,-0.0034,0.003,0.0039,0.0044,0.0083,0.0075,0.0077,0.0079,0.008,0.0125,0.0124,0,0,0,0,0,0,-0.0122,-0.0111,-0.0088,-0.0086,-0.0096,-0.0064,-0.0059,-0.0057,-0.0009,-0.0002,-0.0034,-0.0032,0.0034,0.0041,0.0048,0.0059,0.0078,0.008,0.0082,0.0125,0.0125,0.0124,0,0,0,0,0,0,-0.0123,-0.012,-0.009,-0.0098,-0.0093,-0.0064,-0.0062,-0.0056,-0.0046,-0.0006,0.0002,-0.003,0.0035,0.0044,0.006,0.0062,0.0082,0.0084,0.0126,0.0125,0.0124,0.0083,0,0,0,0,0,0,-0.0124,-0.0121,-0.0126,-0.0099,-0.0093,-0.0086,-0.0062,-0.0056,-0.0045,-0.0042,0.0,0.0008,0.0036,0.0056,0.0063,0.0067,0.0086,0.0127,0.0126,0.0125,0.0085,0.008,0.0077,0,0,0,0,0,-0.0125,-0.0136,-0.0126,-0.0124,-0.0099,-0.0086,-0.0082,-0.0059,-0.0046,-0.0047,-0.0022,0.0007,0.0055,0.0057,0.0066,0.0071,0.0127,0.0126,0.0125,0.0086,0.0081,0.0077,0,0,0,0,0,0,-0.0151,-0.0132,-0.0121,-0.0125,-0.011,-0.008,-0.0081,-0.0063,-0.0044,-0.0041,-0.0,0.0009,0.0021,0.0049,0.005,0.0079,0.0097,0.0097,0.0064,0.006,0.0056,0.0053,0.0089,0,0,0,0,0,-0.016,-0.0162,-0.0139,-0.0143,-0.0138,-0.011,-0.0102,-0.0086,-0.0065,-0.0055,-0.0026,0.0003,0.0023,0.0043,0.0061,0.0081,0.0119,0.009,0.0086,0.0082,0.0085,0.0146,0.0148,0.0121,0.0121,0.0121,0,0,-0.017,-0.0161,-0.0162,-0.0149,-0.0134,-0.0134,-0.0104,-0.0098,-0.0093,-0.005,-0.0038,-0.0015,0.0022,0.0038,0.0048,0.0064,0.0106,0.0081,0.0078,0.0082,0.0145,0.0148,0.015,0.012,0.012,0.012,0,0,-0.0196,-0.0186,-0.0197,-0.019,-0.0175,-0.0156,-0.0156,-0.013,-0.0115,-0.0103,-0.0073,-0.0046,-0.0016,0.0019,0.0038,0.0027,0.0075,0.0028,0.002,0.0079,0.0082,0.0086,0.0123,0.013,0.0037,0.0037,0.0037,0,-0.0211,-0.0221,-0.0198,-0.0209,-0.0209,-0.0169,-0.0181,-0.0159,-0.013,-0.0116,-0.0108,-0.0052,-0.002,0.0016,0.0009,0.0022,0.0052,0.0035,0.0076,0.008,0.0084,0.0122,0.013,0.0035,0.0035,0.0036,0.0036,0,-0.0244,-0.0253,-0.0261,-0.0259,-0.0254,-0.0259,-0.0229,-0.0216,-0.0192,-0.0163,-0.0131,-0.0086,-0.0047,-0.0034,-0.0016,0.0026,0.0036,0.0056,0.0089,0.0085,0.0124,0.0133,0.0032,0.0033,0.0033,0.0034,0,0,-0.0274,-0.0283,-0.0286,-0.0299,-0.0284,-0.0284,-0.0273,-0.0248,-0.0234,-0.0195,-0.017,-0.0125,-0.009,-0.0066,-0.0028,0.0026,0.0077,0.0049,0.0053,0.0089,0.0191,0.0169,0.0178,0.0105,0.0107,0.0108,0.0202,0,-0.0307,-0.0344,-0.0334,-0.0362,-0.0377,-0.0344,-0.034,-0.031,-0.027,-0.0235,-0.0166,-0.0136,-0.0103,-0.0085,-0.0024,0.0047,0.0102,0.0049,0.0188,0.0192,0.0176,0.0188,0.0114,0.0209,0.0211,0.0213,0.0214,0,-0.0342,-0.0364,-0.0404,-0.0419,-0.0422,-0.043,-0.0409,-0.0396,-0.0329,-0.0298,-0.0235,-0.0183,-0.0105,-0.0077,0.0064,0.0027,0.0102,0.0164,0.017,0.0174,0.0188,0.0219,0.0232,0.0231,0.0229,0.0228,0.0227,0,-0.0381,-0.041,-0.0446,-0.0454,-0.0462,-0.0471,-0.0465,-0.0418,-0.0403,-0.0329,-0.0305,-0.0204,-0.0155,-0.0041,0.0083,0.0076,0.024,0.0252,0.0307,0.0305,0.0316,0.0312,0.0359,0.0359,0.0359,0.0358,0.0358,0,-0.0419,-0.0449,-0.0472,-0.0495,-0.0536,-0.0519,-0.0533,-0.0506,-0.0458,-0.0434,-0.0341,-0.0295,-0.0142,-0.0033,0.008,0.0219,0.0244,0.0308,0.0334,0.0293,0.0285,0.0323,0.0317,0.0362,0.0361,0.036,0.036,0,-0.0453,-0.0469,-0.0516,-0.0545,-0.0559,-0.0585,-0.0592,-0.0588,-0.0538,-0.05,-0.0481,-0.0356,-0.0212,-0.0059,0.013,0.0207,0.0346,0.0391,0.0323,0.0343,0.0371,0.0362,0.0458,0.0458,0.0458,0.0458,0.0458,0,-0.0473,-0.0503,-0.0562,-0.0597,-0.0615,-0.0648,-0.0667,-0.0635,-0.062,-0.0532,-0.0512,-0.0377,-0.0278,-0.0023,0.0129,0.0342,0.0369,0.0428,0.041,0.0368,0.0385,0.0375,0.0367,0.0459,0.0459,0.0459,0.0459,0,-0.0509,-0.0533,-0.0572,-0.0648,-0.0688,-0.0723,-0.0739,-0.0735,-0.0678,-0.0641,-0.0518,-0.0378,-0.0217,-0.0024,0.0138,0.0291,0.0382,0.0429,0.043,0.0414,0.037,0.0384,0.0375,0.0459,0.0459,0.0459,0.0459,0,-0.0532,-0.057,-0.0626,-0.0686,-0.0743,-0.0773,-0.0779,-0.0743,-0.0717,-0.0608,-0.0569,-0.0379,-0.0266,-0.005,0.0103,0.0245,0.0278,0.0311,0.0318,0.032,0.0246,0.0168,0.0223,0,0,0,0,0,-0.0548,-0.0594,-0.0659,-0.0722,-0.0775,-0.0803,-0.0814,-0.0801,-0.0749,-0.0666,-0.061,-0.045,-0.0205,-0.0096,0.0045,0.0085,0.0281,0.025,0.0318,0.0461,0.0461,0.0396,0,0,0,0,0,0,-0.0562,-0.0627,-0.066,-0.0732,-0.0777,-0.0825,-0.0831,-0.0798,-0.0738,-0.0667,-0.053,-0.0439,-0.0199,-0.0284,0.0041,0.0084,0.014,0.0373,0.0375,0.0461,0.0461,0.0461,0.0394,0,0,0,0,0]}]]